Weather History for Barrow, AK

Change the Weather History Date:

Wednesday, June 26, 2013

  Actual Average Record
Temperature  
Mean Temperature 45 °F 39 °F  
Max Temperature 58 °F 45 °F 62 °F (1951)
Min Temperature 31 °F 34 °F 26 °F (1979)
Degree Days  
Heating Degree Days 20 26  
Month to date heating degree days 688 779  
Since 1 June heating degree days 688 779  
Since 1 July heating degree days 18123 19286  
Cooling Degree Days 0    
Month to date cooling degree days 0  
Year to date cooling degree days 0  
Since 1 June cooling degree days 0  
Moisture  
Dew Point 33 °F    
Average Humidity 80    
Maximum Humidity 92    
Minimum Humidity 64    
Precipitation  
Precipitation T in 0.01 in 0.82 in (1955)
Month to date precipitation 0.57 0.25  
Year to date precipitation 1.79 0.95  
Snow  
Snow 0.00 in 0.00 in 1.00 in (1979)
Month to date snowfall 0.3 0.7  
Since 1 June snowfall 0.3 0.7  
Since 1 July snowfall 62.8 37.7  
Snow Depth 0.00 in    
Sea Level Pressure  
Sea Level Pressure 29.83 in    
Wind  
Wind Speed 8 mph (SE)    
Max Wind Speed 15 mph    
Max Gust Speed 18 mph    
Visibility 6 miles    
Events Fog    
T = Trace of Precipitation, MM = Missing Value Source: NWS Daily Summary

Daily Weather History Graph

Daily Weather History Graph

Search for Another Location

Airport:

Trip Planner

Search our weather history database for the weather conditions in past years. The results will help you decide how hot, cold, wet, or windy it might be!

Date:

Astronomy

Dec. 31, 1969 Rise Set
Actual Time Sun does not rise Sun does not rise
Civil Twilight Sun does not rise Sun does not rise
Nautical Twilight Sun does not rise Sun does not rise
Astronomical Twilight Sun does not rise Sun does not rise
Moon 1:40 AM AKDT 9:31 AM AKDT
Length of Visible Light 24h 00m
Length of Day
24h 00m
Waning Gibbous, 84% of the Moon is Illuminated
Jun 26
Waning Gibbous
Jun 29
Last Quarter
Jul 7
New
Jul 15
First Quarter
Jul 22
Full

Hourly Weather History & Observations

Time (AKDT) Temp. Windchill Dew Point Humidity Pressure Visibility Wind Dir Wind Speed Gust Speed Precip Events Conditions
12:01 AM 33.8 °F 24.3 °F 30.2 °F 87% 29.91 in 1.8 mi East 13.8 mph - N/A   Overcast
12:03 AM 33.8 °F 24.3 °F 30.2 °F 87% 29.91 in 1.8 mi East 13.8 mph - 0.00 in   Light Drizzle
12:12 AM 33.8 °F 24.3 °F 30.2 °F 87% 29.91 in 5.0 mi ESE 13.8 mph - 0.00 in   Light Drizzle
12:46 AM 33.8 °F 24.3 °F 30.2 °F 87% 29.90 in 1.5 mi East 13.8 mph - 0.00 in   Light Drizzle
12:53 AM 33.1 °F 23.4 °F 30.0 °F 89% 29.90 in 1.2 mi ESE 13.8 mph - 0.00 in   Light Drizzle
12:56 AM 32.0 °F 22.1 °F 30.2 °F 93% 29.90 in 0.8 mi ESE 13.8 mph - 0.00 in   Light Drizzle
1:31 AM 32.0 °F 22.1 °F 30.2 °F 93% 29.90 in 1.0 mi East 13.8 mph - 0.00 in   Light Drizzle
1:53 AM 32.0 °F 23.0 °F 30.0 °F 92% 29.90 in 1.2 mi East 11.5 mph - 0.00 in   Light Drizzle
2:01 AM 32.0 °F 22.5 °F 28.4 °F 87% 29.89 in 0.5 mi East 12.7 mph - 0.00 in Fog Light Drizzle
2:44 AM 32.0 °F 23.0 °F 30.2 °F 93% 29.88 in 1.2 mi East 11.5 mph - 0.00 in   Mostly Cloudy
2:53 AM 32.0 °F 23.6 °F 30.0 °F 92% 29.88 in 1.0 mi East 10.4 mph - 0.00 in   Mostly Cloudy
3:29 AM 32.0 °F 24.2 °F 28.4 °F 87% 29.87 in 0.8 mi East 9.2 mph - 0.00 in   Light Drizzle
3:53 AM 30.9 °F 24.3 °F 28.9 °F 92% 29.88 in 0.8 mi East 6.9 mph - 0.00 in Fog Light Freezing Fog
4:04 AM 30.2 °F 22.6 °F 28.4 °F 93% 29.87 in 1.0 mi East 8.1 mph - N/A Fog Light Freezing Fog
4:09 AM 30.2 °F 21.9 °F 28.4 °F 93% 29.86 in 0.8 mi East 9.2 mph - N/A Fog Light Freezing Fog
4:27 AM 32.0 °F 23.6 °F 28.4 °F 87% 29.86 in 1.2 mi ESE 10.4 mph - N/A Fog Light Freezing Fog
4:37 AM 32.0 °F 24.8 °F 28.4 °F 87% 29.85 in 2.0 mi East 8.1 mph - N/A   Scattered Clouds
4:53 AM 30.9 °F 22.8 °F 28.9 °F 92% 29.85 in 2.0 mi East 9.2 mph - N/A Fog Light Freezing Fog
5:35 AM 32.0 °F 24.2 °F 30.2 °F 93% 29.84 in 2.5 mi East 9.2 mph - N/A   Scattered Clouds
5:53 AM 32.0 °F 24.8 °F 30.0 °F 92% 29.84 in 2.5 mi East 8.1 mph - N/A   Scattered Clouds
6:00 AM 32.0 °F 25.6 °F 30.2 °F 93% 29.84 in 2.5 mi East 6.9 mph - N/A   Scattered Clouds
6:03 AM 32.0 °F 25.6 °F 30.2 °F 93% 29.84 in 2.5 mi East 6.9 mph - N/A   Scattered Clouds
6:30 AM 32.0 °F 24.2 °F 30.2 °F 93% 29.83 in 3.0 mi ESE 9.2 mph - N/A   Mostly Cloudy
6:53 AM 33.1 °F 24.9 °F 30.0 °F 89% 29.83 in 5.0 mi ESE 10.4 mph - N/A   Mostly Cloudy
7:31 AM 33.8 °F 25.8 °F 30.2 °F 87% 29.81 in 10.0 mi SE 10.4 mph - N/A   Mostly Cloudy
7:53 AM 34.0 °F 26.0 °F 32.0 °F 92% 29.81 in 10.0 mi SE 10.4 mph - N/A   Mostly Cloudy
8:53 AM 36.0 °F 29.6 °F 33.1 °F 89% 29.80 in 5.0 mi SE 8.1 mph - N/A   Overcast
9:28 AM 37.4 °F 32.1 °F 33.8 °F 87% 29.79 in 10.0 mi SSE 6.9 mph - N/A   Mostly Cloudy
9:53 AM 39.9 °F 35.8 °F 34.0 °F 79% 29.79 in 10.0 mi South 5.8 mph - N/A   Mostly Cloudy
10:53 AM 39.0 °F 34.0 °F 33.1 °F 79% 29.79 in 10.0 mi NW 6.9 mph - N/A   Mostly Cloudy
11:03 AM 39.2 °F 33.6 °F 33.8 °F 81% 29.79 in 10.0 mi NNW 8.1 mph - N/A   Mostly Cloudy
11:42 AM 41.0 °F - 33.8 °F 76% 29.78 in 10.0 mi Calm Calm - N/A   Scattered Clouds
11:53 AM 42.1 °F 40.2 °F 34.0 °F 73% 29.79 in 10.0 mi North 3.5 mph - N/A   Scattered Clouds
12:53 PM 44.1 °F 40.8 °F 36.0 °F 73% 29.77 in 10.0 mi WNW 5.8 mph - N/A   Scattered Clouds
1:53 PM 43.0 °F 38.8 °F 36.0 °F 76% 29.78 in 10.0 mi NW 6.9 mph - N/A   Scattered Clouds
2:53 PM 46.9 °F - 39.9 °F 77% 29.77 in 10.0 mi West 6.9 mph - N/A   Scattered Clouds
3:53 PM 50.0 °F - 42.1 °F 74% 29.76 in 10.0 mi WSW 9.2 mph - N/A   Scattered Clouds
4:53 PM 54.0 °F - 43.0 °F 66% 29.75 in 10.0 mi WSW 9.2 mph - N/A   Scattered Clouds
5:53 PM 57.9 °F - 44.1 °F 60% 29.74 in 10.0 mi WSW 10.4 mph - N/A   Scattered Clouds
6:53 PM 55.9 °F - 44.1 °F 64% 29.74 in 10.0 mi WSW 12.7 mph - N/A   Scattered Clouds
7:53 PM 48.9 °F - 42.1 °F 77% 29.75 in 10.0 mi West 10.4 mph - N/A   Scattered Clouds
8:53 PM 46.0 °F 41.9 °F 41.0 °F 83% 29.76 in 10.0 mi WSW 8.1 mph - N/A   Scattered Clouds
9:53 PM 44.1 °F 39.5 °F 37.9 °F 79% 29.75 in 10.0 mi WSW 8.1 mph - N/A   Partly Cloudy
10:53 PM 43.0 °F 38.2 °F 36.0 °F 76% 29.75 in 10.0 mi WSW 8.1 mph - N/A   Partly Cloudy
11:53 PM 42.1 °F 37.1 °F 36.0 °F 79% 29.75 in 10.0 mi WSW 8.1 mph - N/A   Scattered Clouds